Regional Weather Roundup
Issued by NWS

Home | Current Version | Previous Version | Text Only | Print | Product List | Glossary On
Versions: 1 2 3 4 5 6 7 8 9 10 11 12 13 14 15 16 17 18 19 20 21 22 23 24 25 26 27 28 29 30 31 32 33 34 35 36 37 38 39 40 41 42 43 44 45 46 47 48 49 50
000
ASUS43 KOAX 221610
RWRNE

WEATHER ROUNDUP FOR NEBRASKA
NATIONAL WEATHER SERVICE OMAHA NE
1000 AM CST SAT NOV 22 2014

NOTES: SATELLITE DATA IS BEING USED TO AUGMENT CLOUD COVER ABOVE
       12000 FEET.
       "FAIR" INDICATES FEW OR NO CLOUDS BELOW 12,000 FEET WITH NO
       SIGNIFICANT WEATHER AND/OR OBSTRUCTIONS TO VISIBILITY.

  * THESE STATIONS DO NOT REPORT WEATHER SUCH AS RAIN...SNOW OR FOG.

NEZ001>004-019>022-054>056-221700-
NEBRASKA PANHANDLE

CITY           SKY/WX    TMP DP  RH WIND       PRES   REMARKS
SCOTTSBLUFF    CLOUDY    56  19  23 SW21G31   29.66F
ALLIANCE       CLOUDY    50  19  29 SW18      29.66F
CHADRON        CLOUDY    48  24  39 SW15      29.57F
KIMBALL        CLOUDY    43  19  38 W7        29.71F
SIDNEY         PTSUNNY   42  21  43 W12       29.73S
$$

NEZ057>060-069>072-079>082-221700-
SOUTHWEST NEBRASKA

CITY           SKY/WX    TMP DP  RH WIND       PRES   REMARKS
NORTH PLATTE   SUNNY     36  25  64 W7        29.75F WCI  30
IMPERIAL       SUNNY     47  23  38 SW8       29.74F
LEXINGTON      SUNNY     33  32  96 CALM      29.76F
MCCOOK         SUNNY     36  25  64 SW5       29.76F WCI  32
OGALLALA       MOSUNNY   35  26  71 W6        29.73F WCI  30
$$

NEZ005>010-023>029-035>040-094-221700-
NORTH CENTRAL NEBRASKA

CITY           SKY/WX    TMP DP  RH WIND       PRES   REMARKS
VALENTINE      SUNNY     40  28  62 SW13      29.62F WCI  32
AINSWORTH      SUNNY     46  25  44 S12       29.64F
BROKEN BOW     SUNNY     46  29  51 SW10      29.72F
O`NEILL        SUNNY     42  33  69 S9        29.69F
ORD            SUNNY     32  31  96 SE6       29.73F WCI  26
THEDFORD       SUNNY     51  25  36 SW13      29.68F
$$

NEZ041-046>049-061>064-073>077-083>087-221700-
SOUTH CENTRAL NEBRASKA

CITY           SKY/WX    TMP DP  RH WIND       PRES   REMARKS
GRAND ISLAND   SUNNY    N/A N/A N/A S9        29.78F
AURORA         FOG       36  36 100 S7        29.79S VSB 1/2 WCI  30
HASTINGS       SUNNY     35  33  92 S10       29.79S WCI  27
HEBRON         CLOUDY    38  37  94 SW13      29.86S FOG     WCI  30
HOLDREGE       SUNNY     37  30  73 SW3       29.77F
KEARNEY *      SUNNY     34  28  80 S9        29.79S WCI  26
YORK           FOG       36  36 100 SW10      29.81S VSB 1/2 WCI  28
$$

NEZ011>018-030>034-042>045-221700-
NORTHEAST NEBRASKA

CITY           SKY/WX    TMP DP  RH WIND       PRES   REMARKS
NORFOLK        CLOUDY    35  33  92 S12       29.75F FOG     WCI  27
ALBION         PTSUNNY   34  32  92 S6        29.76F FOG     WCI  29
BLAIR          CLOUDY    39  38  94 S15       29.81F FOG     WCI  31
COLUMBUS *     CLOUDY    37  34  87 SW12      29.80F WCI  30
FREMONT        CLOUDY    39  38  97 S9        29.82F FOG     WCI  32
TEKAMAH        CLOUDY    40  37  89 S14       29.82S FOG     WCI  32
WAYNE          CLOUDY    36  34  94 SW16      29.76F FOG     WCI  26
$$

NEZ050>053-065>068-078-088>093-221700-
SOUTHEAST NEBRASKA

CITY           SKY/WX    TMP DP  RH WIND       PRES   REMARKS
LINCOLN        CLOUDY    40  37  89 S12       29.84F FOG     WCI  33
OMAHA EPPLEY   CLOUDY    40  38  93 S15       29.85F FOG     WCI  32
BEATRICE       CLOUDY    40  39  99 S17       29.87R FOG     WCI  31
FALLS CITY     CLOUDY    49  46  90 SW20G29   29.89F
NEBRASKA CITY  CLOUDY    41  41  99 SW13      29.87S FOG
PLATTSMOUTH    CLOUDY    39  38  95 S14       29.86S FOG     WCI  31
$$

NEZ044-045-051>053-067-221700-
OMAHA AREA

CITY           SKY/WX    TMP DP  RH WIND       PRES   REMARKS
OMAHA EPPLEY   CLOUDY    40  38  93 S15       29.85F FOG     WCI  32
BLAIR          CLOUDY    39  38  94 S15       29.81F FOG     WCI  31
FREMONT        CLOUDY    39  38  97 S9        29.82F FOG     WCI  32
MILLARD        CLOUDY    40  38  91 S9        29.84F FOG     WCI  34
OFFUTT AFB     CLOUDY    40  38  92 S10G16    29.85S WCI  34
PLATTSMOUTH    CLOUDY    39  38  95 S14       29.86S FOG     WCI  31
WAHOO          CLOUDY    39  36  91 S14       29.82F FOG     WCI  30
$$


USA.gov is the U.S. government's official web portal to all federal, state and local government web resources and services.